RH
38 53 64 74 83 92 59 54 56 52 51 57 89 95 73 70 62 60 87 80 80 69 55 44 57 66 67 76 59 61 67 63 59 54 57 73 69 57 48 47 64 80 84
44 43 47 98 100 100 100 80 84 95 82 68 65 70 77 67 51 46 55 81 73 76 70 84 73 66 74 84 79 77 73 70 70 62 73 70 85 97 98 100 100 100 100
56 68 100 100 100 100 100 100 93 90 95 84 62 53 54 60 55 52 73 59 62 51 43 47 64 70 80 73 90 91 73 65 80 64 58 69 93 100 100 100 94 94 93
52 89 79 90 100 64 76 87 83 95 95 93 100 74 58 53 58 74 69 70 71 61 77 67 76 76 71 73 92 85 56 70 66 54 44 38 42 50 51 51 50 54 60
54 70 83 66 65 60 72 74 60 56 72 85 88 100 100 97 87 79 76 82 81 81 73 72 85 53 33 40 46 56 62 48 49 53 56 65 58 64 56 56 65 59 53
70 61 79 75 69 48 56 58 41 37 29 45 86 72 93 98 100 100 100 100 100 100 100 96 79 68 63 51 32 33 29 32 48 45 41 48 32 28 31 33 29 33 33
95 89 81 57 61 71 77 63 77 72 68 56 48 44 63 78 81 96 100 100 100 100 100 100 100 100 90 81 85 67 35 37 44 60 51 54 44 45 32 28 28 32 40
62 90 87 82 79 92 100 100 100 92 84 78 65 55 64 67 51 83 88 93 97 98 100 100 100 100 98 78 77 90 68 87 60 67 83 91 89 81 65 43 32 30 28
66 90 89 82 77 84 100 100 100 100 90 100 100 100 99 72 62 65 96 100 96 100 88 100 100 83 100 100 100 100 95 88 94 88 99 96 99 82 80 100 79 48 46
69 99 100 100 100 100 93 82 75 84 88 66 50 50 53 55 88 62 78 60 61 77 93 94 89 92 100 100 97 98 100 100 96 98 85 100 98 100 99 85 75 66 57
58 61 87 100 100 99 100 80 75 70 100 100 90 93 87 43 59 57 69 73 84 66 79 93 100 100 100 100 100 100 100 100 93 100 100 90 80 95 100 82 72 80 83
66 62 67 90 100 100 96 88 78 86 100 100 100 100 99 76 48 69 55 54 69 99 100 96 100 100 100 100 98 90 73 95 100 100 100 94 91 87 71 84 95 72 69
67 63 75 80 70 58 94 97 100 100 100 100 100 100 84 99 75 61 45 46 63 49 67 66 56 61 83 67 68 81 100 93 64 68 86 83 86 86 83 80 62 99 98
86 72 79 95 88 100 100 100 100 100 100 100 100 100 98 98 97 100 78 47 37 38 78 68 64 51 46 84 59 40 31 48 46 38 45 67 82 99 100 100 98 100 100
98 99 99 100 97 100 100 98 100 100 98 100 100 100 100 100 100 98 98 100 100 89 72 72 79 91 93 71 59 83 96 91 97 100 100 77 74 91 100 99 84 86 87
100 96 98 99 90 100 100 100 96 96 100 100 100 100 100 100 100 100 100 98 98 88 84 84 82 63 54 55 68 78 100 87 75 100 100 100 88 81 82 72 80 90 91
100 100 100 100 100 100 100 100 100 100 100 84 85 97 100 91 90 100 100 100 100 100 100 98 100 100 91 86 87 86 99 100 100 100 100 100 100 97 86 88 82 83 78
100 100 100 100 100 100 100 100 100 100 100 100 100 100 100 97 95 97 100 100 100 100 100 100 100 100 100 100 98 93 100 100 96 100 99 94 89 88 84 66 64 69 60
100 100 100 100 100 100 100 100 100 100 100 100 100 100 100 100 100 100 100 100 100 100 100 100 100 100 100 95 100 100 100 100 100 98 87 74 74 73 66 57 47 48 74
50 87 100 100 100 100 100 100 100 100 100 100 100 100 100 100 100 100 100 100 100 100 100 99 93 100 100 100 100 100 98 87 89 90 77 69 74 74 56 41 37 51 66
20 20 25 42 67 87 83 81 85 90 99 100 100 96 100 93 98 96 92 92 95 94 100 100 96 95 95 90 92 87 82 76 71 65 61 53 43 51 60 51 48 54 45
31 24 19 19 19 17 15 20 44 61 62 79 83 70 68 80 84 83 92 91 88 77 76 77 78 80 76 70 62 55 51 41 35 30 27 26 31 23 23 24 19 16 16
58 50 40 32 29 26 21 18 15 14 12 12 12 12 13 20 30 36 51 57 55 58 49 42 43 43 38 33 29 24 20 16 19 23 21 15 14 13 12 13 13 15 16
25 25 25 25 25 26 24 24 23 22 20 18 16 14 12 11 11 12 11 11 11 13 14 14 15 15 16 15 15 16 15 13 13 13 13 13 14 16 16 16 17 19 20
23 21 20 19 18 16 15 14 14 13 12 11 10 10 9 9 9 9 9 9 10 10 9 10 9 10 10 10 10 11 11 12 11 10 11 10 11 12 12 12 14 14 14
30 30 27 24 23 20 17 15 12 10 9 7 6 6 6 6 6 6 5 5 5 5 5 5 5 5 5 6 6 6 7 8 7 7 8 7 7 8 8 9 10 10 10
Wind_Speed
17 14 12 8 5 7 9 10 11 9 11 9 12 12 10 10 9 8 10 10 11 10 9 9 8 9 13 13 13 15 17 17 18 17 19 21 21 19 19 19 22 25 26
22 17 14 9 10 7 12 11 12 10 7 8 7 9 7 3 5 7 6 6 7 5 7 8 7 8 11 11 12 13 14 16 17 18 19 18 18 19 20 21 22 23 24
24 22 17 16 14 15 15 17 14 13 10 9 9 3 5 4 2 1 4 7 11 11 9 8 8 9 7 10 11 12 14 15 15 17 18 19 18 18 16 17 20 19 20
31 26 25 24 24 23 22 21 21 18 15 15 14 12 10 12 10 9 13 11 11 8 11 12 11 12 12 10 12 14 14 16 16 18 21 22 21 20 20 24 24 26 26
37 32 29 29 33 28 23 23 24 24 21 21 21 21 23 22 22 20 21 18 17 14 12 12 16 19 20 19 20 17 15 16 18 18 23 25 22 23 25 32 32 33 30
41 40 35 33 38 36 30 30 26 27 31 30 29 29 29 29 29 30 28 28 28 26 24 22 21 22 22 24 22 24 21 17 22 24 29 28 35 35 34 34 34 37 39
43 44 42 37 37 43 38 36 34 33 35 38 39 42 40 39 39 40 38 38 37 36 34 34 33 33 27 28 32 35 38 38 37 35 34 34 37 36 39 39 44 42 44
49 50 47 44 43 41 47 44 40 41 43 46 49 46 49 51 49 48 48 49 49 49 47 45 42 41 37 41 42 40 42 46 40 43 40 43 42 47 48 42 43 44 48
54 56 55 51 49 48 50 50 50 50 48 51 51 58 56 57 54 58 59 59 59 57 56 56 56 53 53 53 50 56 58 54 48 51 52 53 55 61 53 55 56 50 55
58 58 58 48 56 56 55 55 53 52 55 55 61 60 59 60 61 62 67 68 64 65 65 64 65 60 56 61 61 65 64 60 62 62 63 62 66 63 67 59 65 63 66
60 58 61 61 62 62 63 60 60 58 58 62 64 63 67 64 65 64 66 69 70 71 68 69 69 64 64 68 71 67 67 70 72 69 71 76 76 71 73 74 71 72 75
69 66 68 66 68 66 62 60 60 59 70 72 70 70 73 74 73 74 73 70 71 76 77 72 72 68 71 73 74 77 77 73 74 76 78 79 80 82 85 81 75 81 76
73 70 69 67 69 66 60 66 68 71 65 68 71 75 79 72 76 79 80 81 79 78 80 83 79 81 81 81 82 80 81 85 84 87 89 86 84 85 86 86 89 80 82
78 76 76 74 69 60 49 55 64 69 73 71 76 78 80 83 83 84 84 89 88 88 88 89 89 88 88 84 89 92 93 93 94 94 95 91 90 91 91 90 93 92 99
79 80 81 83 84 74 69 71 70 78 80 82 82 79 81 83 82 85 89 92 93 95 96 94 94 92 93 95 99 99 103 99 102 97 101 106 108 109 112 114 114 114 115
82 84 83 84 83 89 92 94 86 85 87 91 95 91 91 92 91 91 94 98 102 104 104 103 106 107 110 111 111 109 109 112 112 113 115 116 118 118 121 123 123 126 129
90 89 86 88 93 95 100 100 100 105 111 112 112 110 112 111 110 109 106 101 106 108 106 111 112 112 115 117 115 120 114 117 122 124 127 128 129 133 133 135 136 138 139
95 97 98 101 97 99 103 104 108 110 112 116 115 115 119 122 121 123 119 121 121 123 123 123 126 126 126 128 129 127 131 136 135 134 135 135 138 140 139 135 131 130 136
100 103 109 112 112 112 115 115 114 113 115 119 121 123 123 125 127 128 128 131 134 135 132 134 137 137 138 142 140 137 139 138 140 143 144 144 146 147 143 144 140 139 137
112 110 114 117 121 120 124 125 126 131 133 133 135 136 137 137 140 141 145 147 150 150 149 149 149 150 146 143 145 147 150 150 150 149 154 150 148 149 145 142 143 137 138
117 118 120 123 123 127 129 133 133 136 136 140 141 144 151 149 152 153 153 152 151 152 153 153 152 153 154 156 154 156 152 156 157 157 160 159 159 147 142 152 150 150 150
106 112 118 122 127 132 135 139 142 146 148 148 147 146 150 154 155 155 159 161 159 157 158 160 162 162 164 162 160 160 164 166 167 163 157 154 153 151 146 145 133 126 121
99 104 110 116 121 126 131 135 140 144 148 151 154 157 159 160 162 165 167 166 162 161 163 165 167 167 168 168 168 165 164 159 157 152 147 141 135 130 127 124 118 112 110
87 92 98 104 110 115 122 126 130 134 138 141 145 149 151 152 153 154 156 157 156 157 157 158 157 156 154 152 151 149 145 139 134 131 128 125 123 122 120 117 114 112 108
70 73 78 82 87 92 99 104 108 111 114 117 120 122 124 127 127 128 128 128 129 129 128 128 127 126 127 126 125 124 122 121 120 117 115 113 111 109 108 106 105 103 102
61 65 69 72 77 82 86 90 92 94 96 98 100 103 104 105 105 105 107 107 108 106 104 106 105 106 107 107 106 105 104 104 103 102 100 98 96 94 92 91 91 90 90
Wind_Direction
216 217 223 231 228 141 157 154 146 134 122 130 129 127 115 105 89 79 98 101 81 66 57 54 54 43 35 40 40 36 36 31 34 36 32 33 31 28 34 29 27 23 19
223 225 234 241 253 239 183 189 178 157 143 140 153 170 169 131 79 48 59 83 34 11 8 358 359 1 18 9 1 9 5 4 7 5 9 9 12 13 14 12 16 18 19
225 227 240 226 242 217 224 204 209 216 219 177 171 158 187 178 162 153 40 29 18 5 327 305 298 308 324 321 333 341 336 352 351 351 0 1 360 359 6 360 355 351 356
227 234 241 241 237 239 227 223 224 220 220 232 233 221 253 275 272 286 305 304 327 347 345 311 287 291 291 298 294 299 315 325 323 331 339 335 333 329 335 340 334 337 335
233 231 244 240 236 243 233 225 239 233 243 248 246 251 261 262 261 269 281 283 291 296 315 299 294 293 290 288 286 289 298 308 310 301 305 310 319 308 312 318 318 326 320
236 237 238 237 236 235 237 243 254 264 257 262 262 265 260 260 255 264 264 273 276 276 277 279 283 292 294 284 281 278 279 289 304 308 314 308 322 318 318 302 312 308 314
241 239 239 247 245 238 239 241 262 268 264 259 266 267 263 264 265 262 263 264 275 275 279 275 272 271 280 286 294 291 275 288 286 300 299 307 308 321 325 319 312 308 310
238 240 242 246 245 248 240 238 255 263 266 260 268 266 260 264 266 263 263 265 270 274 273 273 276 273 280 288 288 294 291 289 281 296 290 293 302 301 305 315 314 307 316
238 239 242 247 249 246 240 244 253 261 264 263 261 260 263 268 270 265 262 263 267 270 271 270 273 273 275 282 284 290 293 289 280 285 292 292 296 301 301 297 303 306 310
238 239 241 246 251 247 245 247 254 259 263 260 265 258 261 268 268 272 265 267 268 272 272 273 271 272 274 276 280 284 288 289 288 287 289 291 292 288 295 298 298 300 304
240 242 242 239 248 248 249 252 262 257 262 264 265 264 265 271 273 272 272 272 274 276 275 275 275 273 273 272 275 278 280 284 286 286 287 292 293 288 289 297 298 298 299
244 245 243 242 243 246 249 254 255 258 257 254 257 258 258 264 269 266 266 267 269 270 271 269 272 269 268 269 274 278 280 281 284 286 289 291 290 291 294 296 294 299 296
245 245 248 246 244 250 252 250 252 252 252 247 252 258 257 257 260 263 267 269 269 268 265 267 269 270 269 272 273 276 275 277 281 282 284 287 290 295 295 292 292 289 291
246 245 246 241 241 238 237 241 241 241 242 247 254 253 259 262 265 261 262 265 266 269 269 268 269 271 269 270 274 278 277 277 280 280 283 284 286 285 286 282 284 281 287
242 245 243 241 243 234 231 231 237 240 246 248 248 253 255 259 262 260 259 259 258 259 260 263 264 265 269 271 273 275 275 274 277 279 278 280 281 282 281 283 286 286 287
236 246 247 246 246 245 243 246 242 239 244 251 250 251 254 255 255 257 259 259 259 260 260 262 264 265 267 269 270 273 275 274 276 277 278 277 279 280 281 282 284 288 290
233 233 234 240 243 245 243 243 244 247 246 249 250 249 249 251 254 258 258 260 264 263 264 263 265 269 270 270 272 272 272 273 273 276 277 280 282 283 285 287 287 286 290
235 239 241 242 242 245 245 244 244 244 245 247 251 250 252 252 254 253 255 259 261 265 263 263 264 266 269 271 273 274 274 276 278 279 281 284 285 287 289 288 287 286 287
241 240 240 241 241 242 244 245 244 245 247 252 254 254 254 253 254 255 257 259 261 263 264 265 267 268 270 273 274 277 280 282 282 285 287 289 288 287 285 284 286 286 287
249 247 243 246 245 244 246 245 246 248 249 249 250 252 253 257 256 257 261 262 264 265 267 269 270 271 273 278 276 278 279 280 283 282 283 285 285 285 284 285 285 285 285
250 251 253 255 253 252 251 251 252 251 250 251 254 256 256 258 260 260 261 263 266 265 267 270 272 274 275 274 278 279 278 277 279 280 280 286 287 285 282 283 284 285 283
256 255 255 256 257 258 258 257 256 257 259 257 257 259 261 260 260 261 263 264 267 269 269 270 272 274 276 276 278 279 279 283 283 281 279 280 281 282 283 285 285 283 283
258 259 260 260 260 261 262 262 263 263 263 263 263 264 264 264 265 266 266 267 269 269 271 272 273 273 275 276 278 278 278 279 280 281 281 281 282 283 283 282 283 283 282
262 262 262 262 262 262 264 264 264 266 266 267 268 268 268 268 268 269 270 270 270 271 272 273 273 274 275 276 275 275 276 278 279 279 280 281 282 282 281 281 282 282 281
267 267 267 268 268 268 267 267 267 267 268 269 269 269 269 270 271 272 272 272 272 272 272 272 273 273 274 274 274 275 276 276 277 279 279 279 279 278 278 279 279 280 281
278 277 276 276 276 275 275 274 275 274 274 273 273 273 273 272 273 273 272 272 272 272 273 272 272 272 272 273 273 275 275 275 276 277 277 278 278 279 280 280 280 280 280